TimeEDT,TemperatureF,Dew PointF,Humidity,Sea Level PressureIn,VisibilityMPH,Wind Direction,Wind SpeedMPH,Gust SpeedMPH,PrecipitationIn,Events,Conditions,WindDirDegrees,DateUTC
12:15 AM,67.1,64.4,91,30.16,5.0,Calm,Calm,-,N/A,,Clear,0,2012-10-04 04:15:00
12:35 AM,66.4,63.9,92,30.17,7.0,Calm,Calm,-,N/A,,Clear,0,2012-10-04 04:35:00
12:55 AM,66.2,63.7,92,30.17,7.0,Calm,Calm,-,N/A,,Clear,0,2012-10-04 04:55:00
1:15 AM,66.2,63.9,92,30.17,4.0,Calm,Calm,-,N/A,,Clear,0,2012-10-04 05:15:00
1:35 AM,66.2,63.9,92,30.17,2.5,Calm,Calm,-,N/A,,Clear,0,2012-10-04 05:35:00
1:55 AM,65.5,63.1,92,30.17,5.0,Calm,Calm,-,N/A,,Clear,0,2012-10-04 05:55:00
2:15 AM,64.9,62.6,92,30.17,3.0,Calm,Calm,-,N/A,,Clear,0,2012-10-04 06:15:00
2:35 AM,64.6,62.2,92,30.17,2.5,Calm,Calm,-,N/A,Rain,Light Rain,0,2012-10-04 06:35:00
2:55 AM,64.0,61.9,93,30.17,4.0,Calm,Calm,-,N/A,Rain,Light Rain,0,2012-10-04 06:55:00
3:15 AM,63.7,61.3,92,30.17,4.0,Calm,Calm,-,N/A,,Scattered Clouds,0,2012-10-04 07:15:00
3:35 AM,63.1,61.0,93,30.16,3.0,Calm,Calm,-,N/A,,Scattered Clouds,0,2012-10-04 07:35:00
3:55 AM,63.3,61.2,93,30.14,3.0,Calm,Calm,-,N/A,,Clear,0,2012-10-04 07:55:00
4:15 AM,63.5,61.3,93,30.16,5.0,Calm,Calm,-,N/A,,Clear,0,2012-10-04 08:15:00
4:35 AM,64.0,61.9,93,30.17,5.0,Calm,Calm,-,N/A,Rain,Light Rain,0,2012-10-04 08:35:00
4:55 AM,64.4,62.2,93,30.17,4.0,Calm,Calm,-,N/A,,Clear,0,2012-10-04 08:55:00
5:15 AM,64.6,62.4,93,30.16,3.0,Calm,Calm,-,N/A,,Clear,0,2012-10-04 09:15:00
5:35 AM,63.9,61.9,93,30.17,2.5,Calm,Calm,-,N/A,,Clear,0,2012-10-04 09:35:00
5:55 AM,64.6,62.6,93,30.18,3.0,Calm,Calm,-,N/A,,Scattered Clouds,0,2012-10-04 09:55:00
6:15 AM,64.6,62.6,93,30.19,4.0,Calm,Calm,-,N/A,,Mostly Cloudy,0,2012-10-04 10:15:00
6:35 AM,65.3,63.1,93,30.19,5.0,Calm,Calm,-,N/A,,Mostly Cloudy,0,2012-10-04 10:35:00
6:55 AM,64.9,62.8,93,30.19,4.0,Calm,Calm,-,N/A,,Scattered Clouds,0,2012-10-04 10:55:00
7:15 AM,64.6,62.6,93,30.19,2.5,Calm,Calm,-,N/A,,Mostly Cloudy,0,2012-10-04 11:15:00
7:35 AM,64.6,62.6,93,30.20,1.8,Calm,Calm,-,N/A,,Mostly Cloudy,0,2012-10-04 11:35:00
7:55 AM,64.0,61.9,93,30.19,1.8,Calm,Calm,-,N/A,,Mist,0,2012-10-04 11:55:00
8:15 AM,64.6,62.6,93,30.20,1.8,Calm,Calm,-,N/A,,Mist,0,2012-10-04 12:15:00
8:35 AM,64.6,62.6,93,30.20,3.0,Calm,Calm,-,N/A,,Scattered Clouds,0,2012-10-04 12:35:00
8:55 AM,65.3,63.1,93,30.22,4.0,Calm,Calm,-,N/A,,Overcast,0,2012-10-04 12:55:00
9:15 AM,65.8,63.7,93,30.22,4.0,Calm,Calm,-,N/A,,Overcast,0,2012-10-04 13:15:00
9:35 AM,66.2,64.0,93,30.22,4.0,Calm,Calm,-,N/A,,Overcast,0,2012-10-04 13:35:00
9:55 AM,66.9,64.8,93,30.21,5.0,Calm,Calm,-,N/A,,Mostly Cloudy,0,2012-10-04 13:55:00
10:15 AM,67.5,65.3,93,30.22,7.0,Calm,Calm,-,N/A,,Scattered Clouds,0,2012-10-04 14:15:00
10:35 AM,68.7,66.4,92,30.22,10.0,Calm,Calm,-,N/A,,Scattered Clouds,0,2012-10-04 14:35:00
10:55 AM,70.2,67.1,90,30.22,10.0,Calm,Calm,-,N/A,,Scattered Clouds,0,2012-10-04 14:55:00
11:15 AM,71.8,65.8,81,30.22,10.0,Calm,Calm,-,N/A,,Mostly Cloudy,0,2012-10-04 15:15:00
11:35 AM,73.4,64.0,72,30.22,10.0,Calm,Calm,-,N/A,,Mostly Cloudy,0,2012-10-04 15:35:00
11:55 AM,73.8,63.3,70,30.21,10.0,Calm,Calm,-,N/A,,Mostly Cloudy,0,2012-10-04 15:55:00
12:15 PM,74.3,60.4,62,30.21,10.0,Calm,Calm,-,N/A,,Scattered Clouds,0,2012-10-04 16:15:00
12:35 PM,75.6,58.8,56,30.21,10.0,WSW,3.5,-,N/A,,Scattered Clouds,240,2012-10-04 16:35:00
12:55 PM,76.3,54.3,46,30.20,10.0,WSW,4.6,-,N/A,,Clear,250,2012-10-04 16:55:00
1:15 PM,76.3,53.2,45,30.19,10.0,Calm,Calm,-,N/A,,Clear,0,2012-10-04 17:15:00
1:35 PM,77.5,54.0,44,30.19,10.0,West,8.1,-,N/A,,Clear,260,2012-10-04 17:35:00
1:55 PM,78.3,52.7,41,30.18,10.0,WSW,9.2,-,N/A,,Scattered Clouds,240,2012-10-04 17:55:00
2:15 PM,76.1,51.4,42,30.18,10.0,WNW,12.7,-,N/A,,Scattered Clouds,290,2012-10-04 18:15:00
2:55 PM,79.0,51.4,38,30.17,10.0,WSW,10.4,-,N/A,,Scattered Clouds,240,2012-10-04 18:55:00
3:15 PM,78.6,51.4,39,30.17,10.0,WNW,11.5,21.9,N/A,,Scattered Clouds,300,2012-10-04 19:15:00
3:35 PM,78.6,50.7,38,30.17,10.0,West,12.7,-,N/A,,Scattered Clouds,270,2012-10-04 19:35:00
3:55 PM,77.9,50.0,38,30.17,10.0,West,9.2,12.7,N/A,,Scattered Clouds,280,2012-10-04 19:55:00
4:15 PM,77.9,49.6,37,30.17,10.0,WSW,10.4,-,N/A,,Clear,240,2012-10-04 20:15:00
4:35 PM,77.2,49.1,37,30.17,10.0,West,9.2,-,N/A,,Scattered Clouds,260,2012-10-04 20:35:00
4:55 PM,75.6,51.8,43,30.18,10.0,WNW,12.7,-,N/A,,Scattered Clouds,290,2012-10-04 20:55:00
5:15 PM,74.8,50.0,42,30.18,10.0,West,11.5,17.3,N/A,,Scattered Clouds,260,2012-10-04 21:15:00
5:35 PM,75.4,47.8,38,30.18,10.0,West,12.7,19.6,N/A,,Scattered Clouds,260,2012-10-04 21:35:00
5:55 PM,74.3,47.5,39,30.18,10.0,West,11.5,18.4,N/A,,Clear,260,2012-10-04 21:55:00
6:35 PM,70.9,50.7,49,30.18,10.0,Calm,Calm,-,N/A,,Clear,0,2012-10-04 22:35:00
6:55 PM,67.1,52.2,59,30.19,10.0,WNW,3.5,-,N/A,,Clear,300,2012-10-04 22:55:00
7:15 PM,63.3,53.1,69,30.19,10.0,Calm,Calm,-,N/A,,Clear,0,2012-10-04 23:15:00
7:35 PM,62.2,52.7,71,30.19,10.0,Calm,Calm,-,N/A,,Clear,0,2012-10-04 23:35:00
7:55 PM,61.9,53.2,73,30.19,10.0,Calm,Calm,-,N/A,,Clear,0,2012-10-04 23:55:00
8:15 PM,60.8,53.8,78,30.19,10.0,Calm,Calm,-,N/A,,Clear,0,2012-10-05 00:15:00
8:35 PM,59.9,53.8,80,30.19,10.0,Calm,Calm,-,N/A,,Clear,0,2012-10-05 00:35:00
9:15 PM,57.0,53.1,87,30.20,10.0,Calm,Calm,-,N/A,,Clear,0,2012-10-05 01:15:00
9:35 PM,56.1,51.8,85,30.20,10.0,Calm,Calm,-,N/A,,Clear,0,2012-10-05 01:35:00
10:15 PM,55.2,51.8,88,30.20,10.0,Calm,Calm,-,N/A,,Clear,0,2012-10-05 02:15:00
10:35 PM,53.4,50.5,90,30.21,7.0,Calm,Calm,-,N/A,,Clear,0,2012-10-05 02:35:00
10:55 PM,54.1,51.1,89,30.21,10.0,Calm,Calm,-,N/A,,Clear,0,2012-10-05 02:55:00
11:15 PM,54.1,51.1,89,30.21,7.0,Calm,Calm,-,N/A,,Clear,0,2012-10-05 03:15:00
11:35 PM,53.6,50.7,90,30.21,7.0,Calm,Calm,-,N/A,,Clear,0,2012-10-05 03:35:00
11:55 PM,53.4,50.7,91,30.21,10.0,Calm,Calm,-,N/A,,Clear,0,2012-10-05 03:55:00